• In Hungary
  • List of Countries
  • For 7 days
  • Water Temperature
  • Satellite Maps
  • Weather Map
  • News
  • Weather Widgets
  • user-avatar
    Login

    Hourly Weather Otmichi

    Today, 23 January, Tuesday

    Time Temperature Precipitation Wind Pressure Humidity
    00:00 -12°C° 0 mm 3 mps 751 mmHg 94%
    01:00 -12°C° 0 mm 3 mps 752 mmHg 94%
    02:00 -12°C° 0 mm 2 mps 752 mmHg 95%
    03:00 -12°C° 0 mm 2 mps 752 mmHg 95%
    04:00 -13°C° 0 mm 3 mps 752 mmHg 94%
    05:00 -13°C° 0 mm 3 mps 752 mmHg 94%
    06:00 -13°C° 0 mm 3 mps 753 mmHg 93%
    07:00 -13°C° 0 mm 3 mps 753 mmHg 93%
    08:00 -13°C° 0 mm 3 mps 753 mmHg 92%
    09:00 -13°C° 0 mm 3 mps 753 mmHg 91%
    10:00 -12°C° 0 mm 3 mps 754 mmHg 90%
    11:00 -10°C° 0 mm 3 mps 754 mmHg 88%
    12:00 -9°C° 0 mm 3 mps 754 mmHg 88%
    13:00 -8°C° 0 mm 2 mps 754 mmHg 88%
    14:00 -7°C° 0 mm 2 mps 754 mmHg 88%
    15:00 -8°C° 0 mm 2 mps 755 mmHg 89%
    16:00 -8°C° 0 mm 2 mps 755 mmHg 90%
    17:00 -8°C° 0 mm 2 mps 755 mmHg 92%
    18:00 -8°C° 0 mm 2 mps 756 mmHg 92%
    19:00 -9°C° 0 mm 2 mps 756 mmHg 93%
    20:00 -9°C° 0 mm 2 mps 756 mmHg 94%
    21:00 -10°C° 0 mm 2 mps 756 mmHg 94%
    22:00 -10°C° 0 mm 2 mps 756 mmHg 95%
    23:00 -10°C° 0 mm 2 mps 757 mmHg 95%

    Tomorrow, 24 January, Wednesday

    Time Temperature Precipitation Wind Pressure Humidity
    00:00 -10°C° 0 mm 2 mps 757 mmHg 96%
    01:00 -12°C° 0 mm 2 mps 757 mmHg 96%
    02:00 -12°C° 0 mm 2 mps 758 mmHg 96%
    03:00 -12°C° 0 mm 2 mps 758 mmHg 96%
    04:00 -10°C° 0 mm 1 mps 758 mmHg 96%
    05:00 -10°C° 0 mm 1 mps 758 mmHg 96%
    06:00 -10°C° 0 mm 1 mps 758 mmHg 96%
    07:00 -10°C° 0 mm 1 mps 759 mmHg 96%
    08:00 -10°C° 0 mm 1 mps 759 mmHg 96%
    09:00 -10°C° 0 mm 2 mps 759 mmHg 95%
    10:00 -10°C° 0 mm 2 mps 759 mmHg 93%
    11:00 -9°C° 0 mm 2 mps 759 mmHg 91%
    12:00 -8°C° 0 mm 2 mps 759 mmHg 90%
    13:00 -9°C° 0 mm 3 mps 759 mmHg 89%
    14:00 -9°C° 0 mm 3 mps 759 mmHg 87%
    15:00 -9°C° 0 mm 3 mps 758 mmHg 88%
    16:00 -10°C° 0 mm 3 mps 758 mmHg 88%
    17:00 -12°C° 0 mm 4 mps 758 mmHg 88%
    18:00 -12°C° 0 mm 4 mps 757 mmHg 85%
    19:00 -11°C° 0 mm 4 mps 757 mmHg 82%
    20:00 -11°C° 0 mm 4 mps 757 mmHg 80%
    21:00 -11°C° 0.1 mm 4 mps 757 mmHg 80%
    22:00 -10°C° 0.1 mm 4 mps 757 mmHg 80%
    23:00 -10°C° 0.1 mm 4 mps 757 mmHg 80%

    Day after tomorrow, 25 January, Thursday

    Time Temperature Precipitation Wind Pressure Humidity
    00:00 -10°C° 0.1 mm 4 mps 756 mmHg 82%
    01:00 -10°C° 0.1 mm 4 mps 756 mmHg 84%
    02:00 -9°C° 0.1 mm 4 mps 756 mmHg 86%
    03:00 -9°C° 0 mm 4 mps 756 mmHg 86%
    04:00 -9°C° 0 mm 4 mps 756 mmHg 87%
    05:00 -9°C° 0 mm 4 mps 756 mmHg 88%
    06:00 -9°C° 0 mm 4 mps 756 mmHg 89%
    07:00 -9°C° 0 mm 4 mps 756 mmHg 89%
    08:00 -9°C° 0 mm 4 mps 756 mmHg 90%
    09:00 -9°C° 0 mm 4 mps 756 mmHg 89%
    10:00 -8°C° 0 mm 4 mps 755 mmHg 88%
    11:00 -8°C° 0 mm 5 mps 755 mmHg 88%
    12:00 -7°C° 0 mm 5 mps 755 mmHg 87%
    13:00 -7°C° 0 mm 5 mps 755 mmHg 87%
    14:00 -6°C° 0 mm 5 mps 755 mmHg 87%
    15:00 -6°C° 0 mm 5 mps 754 mmHg 88%
    16:00 -6°C° 0 mm 5 mps 754 mmHg 88%
    17:00 -6°C° 0 mm 5 mps 754 mmHg 88%
    18:00 -6°C° 0 mm 5 mps 754 mmHg 88%
    19:00 -6°C° 0 mm 5 mps 754 mmHg 88%
    20:00 -6°C° 0 mm 5 mps 754 mmHg 88%
    21:00 -6°C° 0.2 mm 5 mps 754 mmHg 89%
    22:00 -6°C° 0.2 mm 5 mps 754 mmHg 89%
    23:00 -6°C° 0.2 mm 5 mps 754 mmHg 90%

    26 January, Friday

    Time Temperature Precipitation Wind Pressure Humidity
    00:00 -6°C° 0.4 mm 5 mps 754 mmHg 90%
    01:00 -6°C° 0.4 mm 5 mps 754 mmHg 90%
    02:00 -6°C° 0.4 mm 5 mps 754 mmHg 90%
    03:00 -6°C° 0.3 mm 5 mps 754 mmHg 90%
    04:00 -6°C° 0.3 mm 5 mps 754 mmHg 90%
    05:00 -6°C° 0.3 mm 5 mps 754 mmHg 89%
    06:00 -6°C° 0.1 mm 5 mps 755 mmHg 88%
    07:00 -6°C° 0.1 mm 5 mps 755 mmHg 87%
    08:00 -6°C° 0.1 mm 5 mps 755 mmHg 86%
    09:00 -6°C° 0 mm 5 mps 755 mmHg 85%
    10:00 -6°C° 0 mm 5 mps 756 mmHg 83%
    11:00 -5°C° 0 mm 5 mps 756 mmHg 81%
    12:00 -5°C° 0.1 mm 5 mps 756 mmHg 80%
    13:00 -5°C° 0.1 mm 5 mps 756 mmHg 79%
    14:00 -5°C° 0.1 mm 5 mps 756 mmHg 79%
    15:00 -5°C° 0 mm 5 mps 756 mmHg 77%
    16:00 -6°C° 0 mm 5 mps 756 mmHg 75%
    17:00 -6°C° 0 mm 5 mps 757 mmHg 73%
    18:00 -6°C° 0 mm 5 mps 757 mmHg 72%
    19:00 -6°C° 0 mm 5 mps 757 mmHg 72%
    20:00 -7°C° 0 mm 5 mps 757 mmHg 72%
    21:00 -7°C° 0 mm 5 mps 757 mmHg 71%
    22:00 -7°C° 0 mm 5 mps 757 mmHg 71%
    23:00 -7°C° 0 mm 5 mps 757 mmHg 70%

    27 January, Saturday

    Time Temperature Precipitation Wind Pressure Humidity
    00:00 -7°C° 0 mm 5 mps 758 mmHg 70%
    01:00 -8°C° 0 mm 5 mps 758 mmHg 70%
    02:00 -8°C° 0 mm 5 mps 758 mmHg 70%
    03:00 -8°C° 0 mm 5 mps 758 mmHg 70%
    04:00 -8°C° 0 mm 5 mps 758 mmHg 71%
    05:00 -8°C° 0 mm 5 mps 758 mmHg 72%
    06:00 -8°C° 0 mm 5 mps 758 mmHg 73%
    07:00 -10°C° 0 mm 5 mps 758 mmHg 74%
    08:00 -10°C° 0 mm 5 mps 758 mmHg 75%
    09:00 -10°C° 0 mm 5 mps 759 mmHg 75%
    10:00 -10°C° 0 mm 5 mps 759 mmHg 76%
    11:00 -10°C° 0 mm 5 mps 759 mmHg 76%
    12:00 -10°C° 0 mm 5 mps 759 mmHg 77%
    13:00 -10°C° 0 mm 5 mps 759 mmHg 79%
    14:00 -10°C° 0 mm 5 mps 759 mmHg 80%
    15:00 -9°C° 0 mm 4 mps 759 mmHg 81%
    16:00 -9°C° 0 mm 4 mps 759 mmHg 83%
    17:00 -9°C° 0 mm 4 mps 759 mmHg 84%
    18:00 -9°C° 0.2 mm 4 mps 759 mmHg 86%
    19:00 -9°C° 0.2 mm 4 mps 758 mmHg 87%
    20:00 -9°C° 0.2 mm 4 mps 758 mmHg 89%
    21:00 -9°C° 0.2 mm 4 mps 758 mmHg 89%
    22:00 -9°C° 0.2 mm 4 mps 758 mmHg 90%
    23:00 -9°C° 0.2 mm 4 mps 758 mmHg 90%

    28 January, Sunday

    Time Temperature Precipitation Wind Pressure Humidity
    00:00 -9°C° 0.3 mm 4 mps 757 mmHg 91%
    01:00 -9°C° 0.3 mm 4 mps 757 mmHg 91%
    02:00 -9°C° 0.3 mm 4 mps 757 mmHg 92%
    03:00 -9°C° 0.6 mm 4 mps 756 mmHg 92%
    04:00 -9°C° 0.6 mm 4 mps 755 mmHg 92%
    05:00 -9°C° 0.6 mm 4 mps 755 mmHg 93%
    06:00 -9°C° 0.4 mm 4 mps 754 mmHg 92%
    07:00 -9°C° 0.4 mm 4 mps 754 mmHg 92%
    08:00 -9°C° 0.4 mm 4 mps 753 mmHg 92%
    09:00 -9°C° 0.2 mm 4 mps 753 mmHg 91%
    10:00 -8°C° 0.2 mm 4 mps 753 mmHg 90%
    11:00 -7°C° 0.2 mm 4 mps 752 mmHg 90%
    12:00 -7°C° 0.2 mm 4 mps 752 mmHg 90%
    13:00 -5°C° 0.2 mm 4 mps 751 mmHg 90%
    14:00 -5°C° 0.2 mm 4 mps 751 mmHg 91%
    15:00 -4°C° 0.1 mm 4 mps 751 mmHg 91%
    16:00 -4°C° 0.1 mm 4 mps 751 mmHg 90%
    17:00 -4°C° 0.1 mm 3 mps 750 mmHg 90%
    18:00 -4°C° 0.1 mm 3 mps 750 mmHg 90%
    19:00 -4°C° 0.1 mm 4 mps 750 mmHg 91%
    20:00 -3°C° 0.1 mm 4 mps 749 mmHg 91%
    21:00 -4°C° 0 mm 3 mps 749 mmHg 91%
    22:00 -4°C° 0 mm 3 mps 749 mmHg 92%
    23:00 -4°C° 0 mm 3 mps 749 mmHg 92%
    Show more